This demonstration page uses our WeatherBlox Daily Observations layout. Learn more.

Left ArrowRight Arrow

44.8408, -93.29828

Hourly Observations for December 4, 2019

Temp ( °F °C ) Dew Point ( °F °C ) Humidity (%) Winds ( mph kmh ) Pressure ( in mb ) Visibility ( mi km ) Precip ( " mm )
12:53 am 00:53 Mostly Cloudy 32 0 24 -4.4 73 73 W 8 13 29.66 1004 10 16 0.00 0.00
1:53 am 01:53 Mostly Cloudy 32 0 25 -3.9 75 75 W 7 11 29.67 1005 10 16 0.00 0.00
2:53 am 02:53 Mostly Cloudy 30 -1.1 24 -4.4 79 79 WSW 5 7 29.68 1005 10 16 0.00 0.00
3:53 am 03:53 Clear 29 -1.7 24 -4.4 82 82 WSW 7 11 29.70 1006 10 16 0.00 0.00
4:53 am 04:53 Clear 29 -1.7 23 -5 78 78 W 6 9 29.72 1007 9 14 0.00 0.00
5:53 am 05:53 Clear 29 -1.7 24 -4.4 82 82 WSW 5 7 29.74 1007 10 16 0.00 0.00
6:53 am 06:53 Clear 27 -2.8 23 -5 85 85 WSW 7 11 29.75 1008 10 16 0.00 0.00
7:53 am 07:53 Sunny 28 -2.2 24 -4.4 85 85 WSW 5 7 29.77 1008 10 16 0.00 0.00
8:53 am 08:53 Sunny 29 -1.7 24 -4.4 82 82 WSW 6 9 29.79 1009 10 16 0.00 0.00
9:53 am 09:53 Sunny 32 0 25 -3.9 75 75 W 6 9 29.80 1009 10 16 0.00 0.00
10:53 am 10:53 Sunny 37 2.8 26 -3.3 65 65 NW 12 19 29.80 1009 10 16 0.00 0.00
11:53 am 11:53 Sunny 37 2.8 26 -3.3 65 65 NNW 14 22 29.80 1009 10 16 0.00 0.00
12:53 pm 12:53 Mostly Sunny 38 3.3 26 -3.3 62 62 NW 13 20 29.81 1009 10 16 0.00 0.00
1:53 pm 13:53 Mostly Sunny 38 3.3 26 -3.3 62 62 NW 12 19 29.83 1010 10 16 0.00 0.00
2:53 pm 14:53 Mostly Sunny 39 3.9 27 -2.8 62 62 NNW 9 15 29.84 1011 10 16 0.00 0.00
3:53 pm 15:53 Mostly Sunny 36 2.2 27 -2.8 70 70 W 8 13 29.85 1011 10 16 0.00 0.00
4:53 pm 16:53 Clear 34 1.1 26 -3.3 73 73 W 7 11 29.88 1012 10 16 0.00 0.00
5:53 pm 17:53 Clear 32 0 25 -3.9 75 75 WSW 6 9 29.89 1012 10 16 0.00 0.00
6:53 pm 18:53 Clear 31 -0.6 25 -3.9 79 79 WSW 5 7 29.90 1013 10 16 0.00 0.00
7:53 pm 19:53 Clear 30 -1.1 25 -3.9 82 82 SW 3 6 29.91 1013 10 16 0.00 0.00
8:53 pm 20:53 Clear 29 -1.7 24 -4.4 82 82 WSW 3 6 29.91 1013 10 16 0.00 0.00
9:53 pm 21:53 Clear 27 -2.8 23 -5 85 85 Calm 29.91 1013 10 16 0.00 0.00
10:53 pm 22:53 Clear 27 -2.8 23 -5 85 85 SW 5 7 29.91 1013 7 11 0.00 0.00
11:53 pm 23:53 Clear 24 -4.4 22 -5.6 91 91 WNW 3 6 29.91 1013 8 13 0.00 0.00

Powered by AerisWeather